If you wish to contribute or participate in the discussions about articles you are invited to join SKYbrary as a registered user

 Actions

Lord Howe Island Airport

From SKYbrary Wiki

YLHI
Airport
ICAO: YLHI – IATA: LDH
Summary
Name Lord Howe Island Airport
Region Asia and Pacific
Territory Australia AU.gif
Location Lord Howe Island, New South Wales
Serving Lord Howe Island
Elevation 1.524 m
5 ft
5 ft1.524 m
Type small airport
Coordinates 31° 32' 17.88" S, 159° 4' 37.20" E
Runways
Designator Length Width Surface ROPS
10/28 886 m2,906.824 ft
0 m0 ft
B yes/yes


METAR
Observation YLHI 250500Z AUTO 06013KT 9999 // SCT031 BKN042 25/19 Q1016
Station Lord Howe Island Airport
Date/Time 25 February 2020 05:00:00
Wind direction 60°
Wind speed 13 kts
Lowest cloud amount scattered clouds
Temperature 25°C
Dew point 19°C
Humidity 69%
QNH 1016 hPa
Weather condition n/a